Location: Wildlife_Club
(35.6000°N, 81.4330°W)
Time: 04:25:45
(UTC-04:00)

Amateur Radio Satellites - All Passes

Search period start: 24 July 2014 03:55
Search period end: 25 July 2014 03:55
Location: Wildlife_Club, 35.6000°N, 81.4330°W

Satellite Date Start Highest point End Downlink Frequencies (MHz)
Time Altitude Azimuth
AO-7 24 Jul 04:11:00 04:14:34 13° 91° (E) 04:18:06 29.400 - 29.500 MHz
TMSAT-1 24 Jul 04:14:50 04:20:00 51° 100° (E) 04:25:07 436.925 FM
Oscar 16 24 Jul 04:18:55 04:22:19 18° 295° (WNW) 04:25:43 437.025 USB, Beacon 2401.1428
ITAMSAT 1 24 Jul 04:27:12 04:31:49 34° 290° (WNW) 04:36:24 435.822 SSB
Gurwin Techsat 1B 24 Jul 04:35:31 04:40:48 71° 285° (WNW) 04:46:04 435.225 FM
OPAL 24 Jul 04:38:14 04:43:12 86° 255° (WSW) 04:48:10 ?
AO-27 24 Jul 04:45:26 04:49:25 23° 293° (WNW) 04:53:22 436.795 MHz FM
Uribyol 2 24 Jul 04:48:50 04:52:32 20° 294° (WNW) 04:56:13 436.500 FM
AO-Echo 24 Jul 04:51:45 04:55:11 19° 295° (WNW) 04:58:34 ?
Uosat F 24 Jul 05:04:11 05:08:40 32° 98° (E) 05:13:07 435.120 FM
JAS-1B 24 Jul 05:34:21 05:42:36 35° 298° (WNW) 05:49:59 435.800 - 435.900 CW/SSB
TMSAT-1 24 Jul 05:56:02 05:59:28 18° 295° (WNW) 06:02:53 436.925 FM
AO-7 24 Jul 05:59:57 06:08:20 83° 107° (ESE) 06:16:38 29.400 - 29.500 MHz
KITSAT 1 24 Jul 06:04:02 06:07:38 14° 100° (E) 06:11:13 435.175 FM
Hamsat 24 Jul 06:16:39 06:18:05 11° 92° (E) 06:19:31 145.90 MHz
JAS-2 24 Jul 06:25:32 06:28:16 13° 88° (E) 06:30:52 435.800 - 435.900 CW/SSB, 435.910 FM
Uosat F 24 Jul 06:43:14 06:47:16 25° 292° (WNW) 06:51:17 435.120 FM
STRAND 1 24 Jul 06:52:36 06:57:22 40° 71° (ENE) 07:02:08 ?
Lituanica SAT-1 24 Jul 07:32:26 07:34:34 58° 41° (NE) 07:36:42 437.275 MHz beacon
Oscar 10/S400 24 Jul 07:46:31 09:03:22 27° 256° (WSW) 12:01:34 145.825 - 145.975 CW/USB, Beacon 145.810 USB
Hamsat 24 Jul 07:50:08 07:54:17 50° 285° (WNW) 07:58:27 145.90 MHz
ISS 24 Jul 07:51:10 07:53:21 16° 28° (NNE) 07:55:32 145.800 FM
KITSAT 1 24 Jul 07:53:43 08:01:49 84° 116° (ESE) 08:09:57 435.175 FM
PANSAT 24 Jul 07:54:21 07:57:11 19° 167° (SSE) 08:00:00 not established
AO-7 24 Jul 07:54:30 08:00:07 21° 305° (NW) 08:05:44 29.400 - 29.500 MHz
JAS-2 24 Jul 08:08:00 08:14:05 66° 287° (WNW) 08:19:30 435.800 - 435.900 CW/SSB, 435.910 FM
MaSat-1 24 Jul 08:08:31 08:13:15 31° 59° (ENE) 08:17:48 437.345 MHz
STRAND 1 24 Jul 08:32:50 08:36:39 21° 265° (W) 08:40:29 ?
Saudisat 1A 24 Jul 08:42:40 08:46:21 27° 112° (ESE) 08:50:04 436.775 MHz
SO-67 24 Jul 08:48:01 08:51:27 60° 283° (WNW) 08:54:52 435.3500 MHz FM
ISS 24 Jul 09:27:01 09:30:21 63° 224° (SW) 09:33:39 145.800 FM
PANSAT 24 Jul 09:33:34 09:36:54 28° 179° (S) 09:40:14 not established
UKube-1 24 Jul 09:42:21 09:44:44 14° 94° (E) 09:47:06 145.840 MHz, 145.915 MHz
MaSat-1 24 Jul 09:45:57 09:50:33 30° 256° (WSW) 09:54:54 437.345 MHz
KITSAT 1 24 Jul 09:52:08 09:58:10 22° 316° (NW) 10:04:13 435.175 FM
Saudisat 1A 24 Jul 10:22:04 10:25:51 27° 307° (NW) 10:29:39 436.775 MHz
Sapphire 24 Jul 10:24:48 10:26:33 11° 45° (NE) 10:28:18 437.095 MHz 1200 baud AX-25 AFSK
Oscar 11 24 Jul 10:32:11 10:35:53 27° 97° (E) 10:39:34 145.825 FM, Beacon 2401.500 USB
HO-68 24 Jul 10:33:39 10:40:49 76° 104° (ESE) 10:47:56 435.675 MHz FM
FUNcube-1 24 Jul 10:41:28 10:42:05 10° 92° (E) 10:42:43 145.950 - 145.970 MHz USB
PCSat 24 Jul 10:56:55 11:01:09 23° 52° (NE) 11:05:21 145.825 MHz
PANSAT 24 Jul 11:13:41 11:16:38 21° 192° (SSW) 11:19:35 not established
UKube-1 24 Jul 11:17:00 11:21:06 41° 288° (WNW) 11:25:10 145.840 MHz, 145.915 MHz
Sapphire 24 Jul 12:05:24 12:10:50 80° 63° (ENE) 12:16:15 437.095 MHz 1200 baud AX-25 AFSK
Oscar 11 24 Jul 12:08:34 12:11:54 22° 291° (WNW) 12:15:14 145.825 FM, Beacon 2401.500 USB
FUNcube-1 24 Jul 12:14:43 12:18:45 50° 285° (WNW) 12:22:48 145.950 - 145.970 MHz USB
HO-68 24 Jul 12:23:05 12:27:43 19° 301° (WNW) 12:32:20 435.675 MHz FM
PCSat 24 Jul 12:39:35 12:44:46 47° 249° (WSW) 12:49:54 145.825 MHz
Oscar 19 24 Jul 13:25:53 13:30:06 27° 68° (ENE) 13:34:20 437.125 CW, 437.150 USB
RS-15 24 Jul 13:46:00 13:55:50 37° 107° (ESE) 14:05:25 29.354 - 29.394 USB, Beacon 29.352 USB
Sapphire 24 Jul 13:52:10 13:53:30 11° 258° (WSW) 13:54:50 437.095 MHz 1200 baud AX-25 AFSK
Oscar 16 24 Jul 13:52:29 13:57:25 52° 73° (ENE) 14:02:23 437.025 USB, Beacon 2401.1428
SO-50 24 Jul 13:57:47 14:02:03 49° 115° (ESE) 14:06:24 436.795 FM
ITAMSAT 1 24 Jul 14:03:18 14:07:44 29° 69° (ENE) 14:12:10 435.822 SSB
Gurwin Techsat 1B 24 Jul 14:16:32 14:19:30 15° 64° (ENE) 14:22:29 435.225 FM
AO-27 24 Jul 14:20:33 14:25:28 43° 71° (ENE) 14:30:24 436.795 MHz FM
AO-Echo 24 Jul 14:21:26 14:26:24 44° 72° (ENE) 14:31:26 ?
JAS-1B 24 Jul 14:23:02 14:30:39 38° 63° (ENE) 14:39:09 435.800 - 435.900 CW/SSB
Uribyol 2 24 Jul 14:23:25 14:28:25 48° 72° (ENE) 14:33:24 436.500 FM
UOSAT-12 24 Jul 14:51:10 14:51:27 10° 106° (ESE) 14:51:44 437.025 FM, 437.400 FM
Oscar 19 24 Jul 15:04:49 15:09:18 31° 263° (W) 15:13:48 437.125 CW, 437.150 USB
AO-7 24 Jul 15:07:02 15:11:59 17° 54° (NE) 15:16:55 29.400 - 29.500 MHz
TMSAT-1 24 Jul 15:32:36 15:37:48 60° 74° (ENE) 15:43:01 436.925 FM
Oscar 16 24 Jul 15:34:04 15:37:02 15° 267° (W) 15:40:01 437.025 USB, Beacon 2401.1428
SO-50 24 Jul 15:39:54 15:42:52 17° 312° (NW) 15:45:53 436.795 FM
ITAMSAT 1 24 Jul 15:42:35 15:47:06 30° 263° (W) 15:51:39 435.822 SSB
KITSAT 1 24 Jul 15:51:02 15:57:35 26° 47° (NE) 16:04:04 435.175 FM
Gurwin Techsat 1B 24 Jul 15:53:41 15:58:55 61° 259° (W) 16:04:11 435.225 FM
RS-15 24 Jul 15:56:46 16:07:39 57° 306° (NW) 16:18:23 29.354 - 29.394 USB, Beacon 29.352 USB
AO-27 24 Jul 16:01:25 16:05:08 20° 266° (W) 16:08:51 436.795 MHz FM
AO-Echo 24 Jul 16:01:33 16:05:18 20° 267° (W) 16:09:07 ?
Uribyol 2 24 Jul 16:04:43 16:08:05 17° 266° (W) 16:11:28 436.500 FM
JAS-1B 24 Jul 16:12:44 16:20:42 51° 263° (W) 16:29:55 435.800 - 435.900 CW/SSB
Uosat F 24 Jul 16:14:37 16:19:07 34° 70° (ENE) 16:23:37 435.120 FM
UOSAT-12 24 Jul 16:26:22 16:30:55 71° 301° (WNW) 16:35:36 437.025 FM, 437.400 FM
OPAL 24 Jul 16:51:17 16:55:46 31° 100° (E) 17:00:17 ?
AO-7 24 Jul 16:55:11 17:03:32 85° 72° (ENE) 17:11:57 29.400 - 29.500 MHz
Saudisat 1A 24 Jul 17:13:32 17:15:04 12° 45° (NE) 17:16:35 436.775 MHz
TMSAT-1 24 Jul 17:15:21 17:18:04 14° 268° (W) 17:20:48 436.925 FM
KITSAT 1 24 Jul 17:45:36 17:53:38 71° 246° (WSW) 18:01:36 435.175 FM
Uosat F 24 Jul 17:53:52 17:57:53 24° 264° (W) 18:01:56 435.120 FM
Oscar 10/S400 24 Jul 18:07:28 18:20:58 18° 147° (SSE) 18:32:56 145.825 - 145.975 CW/USB, Beacon 145.810 USB
JAS-2 24 Jul 18:14:16 18:21:33 44° 69° (ENE) 18:28:36 435.800 - 435.900 CW/SSB, 435.910 FM
RS-15 24 Jul 18:16:26 18:23:08 17° 334° (NNW) 18:29:52 29.354 - 29.394 USB, Beacon 29.352 USB
OPAL 24 Jul 18:30:19 18:34:30 27° 294° (WNW) 18:38:42 ?
Hamsat 24 Jul 18:40:19 18:44:29 78° 77° (ENE) 18:48:40 145.90 MHz
Saudisat 1A 24 Jul 18:50:47 18:55:12 79° 242° (WSW) 18:59:34 436.775 MHz
AO-7 24 Jul 18:52:08 18:57:06 17° 268° (W) 19:02:06 29.400 - 29.500 MHz
STRAND 1 24 Jul 19:07:22 19:10:35 17° 93° (E) 19:13:47 ?
SO-67 24 Jul 19:18:42 19:21:34 25° 73° (ENE) 19:24:28 435.3500 MHz FM
JAS-2 24 Jul 19:59:23 20:06:28 37° 264° (W) 20:13:26 435.800 - 435.900 CW/SSB, 435.910 FM
RS-15 24 Jul 20:37:39 20:42:19 13° 13° (NNE) 20:47:01 29.354 - 29.394 USB, Beacon 29.352 USB
STRAND 1 24 Jul 20:45:06 20:50:00 48° 288° (WNW) 20:54:52 ?
SO-67 24 Jul 20:52:44 20:54:38 14° 266° (W) 20:56:33 435.3500 MHz FM
HO-68 24 Jul 20:58:58 21:05:37 43° 67° (ENE) 21:12:15 435.675 MHz FM
Oscar 11 24 Jul 21:25:35 21:28:09 16° 67° (ENE) 21:30:43 145.825 FM, Beacon 2401.500 USB
MaSat-1 24 Jul 21:58:34 22:01:06 17° 100° (E) 22:03:54 437.345 MHz
UKube-1 24 Jul 22:09:09 22:13:30 71° 258° (WSW) 22:17:52 145.840 MHz, 145.915 MHz
SO-50 24 Jul 22:32:29 22:36:15 23° 50° (NE) 22:40:02 436.795 FM
HO-68 24 Jul 22:47:02 22:53:19 33° 263° (W) 22:59:38 435.675 MHz FM
RS-15 24 Jul 22:49:29 22:59:25 37° 46° (NE) 23:09:36 29.354 - 29.394 USB, Beacon 29.352 USB
Oscar 11 24 Jul 22:59:58 23:03:59 39° 262° (W) 23:08:02 145.825 FM, Beacon 2401.500 USB
FUNcube-1 24 Jul 23:07:50 23:12:15 85° 78° (ENE) 23:16:34 145.950 - 145.970 MHz USB
Lituanica SAT-1 24 Jul 23:31:20 23:33:09 26° 133° (SE) 23:35:00 437.275 MHz beacon
MaSat-1 24 Jul 23:34:35 23:38:03 31° 302° (WNW) 23:42:03 437.345 MHz
SO-50 25 Jul 00:12:29 00:16:56 40° 246° (WSW) 00:21:25 436.795 FM
ISS 25 Jul 00:31:40 00:33:58 18° 129° (SE) 00:36:17 145.800 FM
UOSAT-12 25 Jul 00:58:54 01:03:25 43° 56° (NE) 01:07:52 437.025 FM, 437.400 FM
RS-15 25 Jul 01:01:30 01:12:23 65° 247° (WSW) 01:23:43 29.354 - 29.394 USB, Beacon 29.352 USB
Sapphire 25 Jul 01:03:36 01:06:37 15° 104° (ESE) 01:09:39 437.095 MHz 1200 baud AX-25 AFSK
Lituanica SAT-1 25 Jul 01:05:13 01:05:54 11° 329° (NNW) 01:06:35 437.275 MHz beacon
PCSat 25 Jul 01:35:23 01:40:13 34° 109° (ESE) 01:45:04 145.825 MHz
Oscar 19 25 Jul 01:42:24 01:44:00 11° 91° (E) 01:45:36 437.125 CW, 437.150 USB
ISS 25 Jul 02:07:20 02:10:28 37° 323° (NW) 02:13:38 145.800 FM
Oscar 16 25 Jul 02:07:48 02:11:53 24° 95° (E) 02:15:58 437.025 USB, Beacon 2401.1428
JAS-1B 25 Jul 02:16:48 02:19:39 12° 82° (E) 02:22:23 435.800 - 435.900 CW/SSB
ITAMSAT 1 25 Jul 02:20:57 02:23:00 12° 92° (E) 02:25:02 435.822 SSB
AO-Echo 25 Jul 02:33:09 02:36:30 18° 93° (E) 02:39:47 ?
AO-27 25 Jul 02:37:30 02:41:13 20° 94° (E) 02:44:53 436.795 MHz FM
Uribyol 2 25 Jul 02:39:57 02:43:53 22° 95° (E) 02:47:47 436.500 FM
UOSAT-12 25 Jul 02:40:02 02:43:12 18° 251° (WSW) 02:46:20 437.025 FM, 437.400 FM
Sapphire 25 Jul 02:44:09 02:49:28 60° 299° (WNW) 02:54:50 437.095 MHz 1200 baud AX-25 AFSK
Oscar 19 25 Jul 03:18:38 03:23:46 70° 285° (WNW) 03:28:54 437.125 CW, 437.150 USB
PCSat 25 Jul 03:18:57 03:23:36 29° 305° (NW) 03:28:18 145.825 MHz
